Temp
3 3 5 6 6 6 3 5 3 5 5 6 6 6 7 8 9 9 9 10 11 12 13 13 13 13 12 12 12 13 12 12 12 12 12 12 12 12 11 11 11 11 10 9
4 5 6 6 6 5 4 5 5 5 5 6 7 8 7 8 8 9 8 9 9 10 11 12 12 12 12 11 11 11 11 11 11 11 11 11 10 10 10 10 10 10 10 9
2 4 5 4 5 5 5 4 5 5 6 5 6 6 6 7 8 8 8 9 9 9 9 9 10 10 11 10 10 11 11 10 10 10 10 9 9 9 9 9 9 9 9 9
4 4 4 5 4 5 4 4 4 5 5 5 6 7 6 7 8 8 8 8 8 9 9 9 9 9 9 9 9 9 9 9 9 9 8 9 9 9 8 9 9 8 8 8
2 1 5 5 5 5 5 5 5 6 6 6 7 8 8 8 8 8 8 8 8 8 8 8 8 8 8 8 8 8 8 8 8 8 8 8 8 8 8 8 7 7 7 7
3 4 4 5 6 6 6 6 6 5 5 6 7 6 6 7 8 8 8 8 8 7 8 8 8 7 7 7 7 7 7 7 7 7 7 7 7 7 7 7 7 7 6 6
3 3 4 5 5 6 5 4 5 5 5 5 5 7 8 7 7 8 7 7 8 7 7 7 7 7 7 7 7 7 7 7 7 7 6 6 6 6 6 6 6 6 6 6
2 4 4 5 5 6 4 5 5 5 5 5 6 7 7 7 7 7 7 7 7 7 7 7 7 7 7 7 6 6 6 6 6 6 6 6 6 6 6 6 5 5 5 5
3 3 4 4 4 4 4 4 5 5 5 5 5 5 5 5 5 6 6 6 6 6 6 7 7 7 7 6 6 6 6 6 6 5 5 5 5 5 5 5 5 4 4 4
3 4 4 4 5 5 5 5 5 5 5 6 5 5 5 5 5 5 5 5 6 6 6 6 6 6 6 6 6 5 5 5 4 4 4 4 4 4 4 4 4 3 3 3
2 3 4 4 4 4 4 4 5 4 5 5 5 4 4 5 5 5 5 5 5 5 5 5 5 5 5 5 5 5 4 4 4 4 3 3 4 4 3 3 3 3 3 3
2 2 3 4 3 3 4 4 4 4 4 4 4 4 4 4 4 4 5 5 5 5 5 5 4 4 4 4 4 4 3 3 3 3 3 3 3 3 3 3 3 3 2 2
2 2 3 3 3 3 3 3 4 3 3 3 4 4 4 4 4 4 4 4 4 3 4 4 4 4 4 4 4 3 3 3 2 2 2 3 2 3 2 2 2 2 2 2
2 3 2 3 3 3 3 3 3 3 3 3 3 3 3 3 3 3 3 3 3 3 3 3 3 3 3 3 3 3 3 2 2 2 2 2 2 2 2 2 2 2 1 1
2 1 2 2 2 3 2 2 2 2 2 2 2 2 2 2 2 2 2 2 2 2 2 2 2 2 2 2 2 2 2 2 2 2 2 2 2 2 2 1 1 1 1 0
1 1 1 1 1 2 2 1 1 1 1 1 1 1 1 1 1 1 1 1 1 1 1 1 1 1 1 1 1 1 1 1 1 1 1 1 2 2 1 1 0 -0 -0 -0
-0 -0 -1 -0 0 0 0 0 -0 1 1 -0 -0 -0 -0 -1 -0 -0 -0 -0 -1 -1 -1 -1 -1 -1 -1 -1 -0 -0 0 0 0 1 1 1 1 1 0 -0 -0 -0 0 -0
-0 -2 -2 -2 -2 -2 -2 -2 -2 -2 -1 -1 -1 -1 -1 -1 -1 -1 -2 -2 -2 -2 -2 -3 -3 -3 -3 -3 -3 -3 -2 -2 -1 -1 -1 -1 -2 -2 -1 -1 -1 -1 -1 -2
0 -0 -1 -2 -3 -3 -3 -3 -3 -3 -3 -3 -3 -3 -3 -3 -3 -3 -4 -4 -4 -3 -3 -4 -4 -4 -4 -4 -3 -3 -3 -2 -2 -2 -2 -2 -2 -2 -3 -3 -3 -3 -3 -3
-0 -1 -1 -2 -2 -2 -3 -4 -4 -4 -4 -3 -4 -4 -4 -4 -4 -5 -6 -5 -4 -5 -5 -5 -5 -4 -4 -4 -4 -4 -3 -3 -3 -2 -2 -3 -3 -3 -4 -4 -4 -3 -3 -3
-1 -1 -1 -1 -2 -2 -4 -5 -5 -4 -4 -4 -4 -4 -5 -5 -6 -5 -5 -5 -4 -5 -5 -6 -5 -5 -5 -5 -4 -4 -4 -4 -4 -3 -3 -3 -3 -3 -3 -4 -4 -4 -4 -4
-1 -1 -2 -2 -3 -4 -5 -5 -5 -5 -4 -5 -5 -5 -6 -6 -6 -6 -6 -6 -5 -6 -6 -6 -6 -5 -5 -5 -5 -5 -4 -4 -4 -4 -4 -4 -4 -4 -4 -4 -4 -4 -4 -4
-2 -2 -3 -4 -5 -6 -6 -6 -6 -6 -6 -6 -6 -6 -6 -6 -6 -6 -7 -7 -6 -7 -7 -6 -6 -6 -6 -5 -6 -5 -5 -5 -5 -5 -6 -5 -5 -5 -5 -6 -5 -5 -5 -5
-2 -3 -3 -4 -7 -7 -7 -7 -7 -6 -6 -6 -7 -7 -7 -7 -7 -7 -8 -7 -7 -8 -7 -7 -6 -7 -7 -6 -6 -6 -6 -7 -7 -6 -6 -7 -6 -6 -6 -6 -6 -6 -6 -6
-3 -3 -4 -5 -7 -8 -8 -7 -7 -6 -7 -7 -7 -8 -8 -8 -8 -8 -8 -8 -8 -7 -7 -7 -7 -7 -7 -7 -7 -7 -8 -8 -7 -7 -7 -7 -7 -7 -7 -7 -6 -6 -6 -6
-3 -4 -6 -6 -7 -8 -8 -7 -7 -7 -7 -7 -8 -8 -9 -9 -9 -9 -9 -8 -8 -8 -8 -8 -8 -8 -8 -8 -8 -8 -8 -8 -7 -7 -7 -7 -7 -7 -7 -7 -7 -7 -7 -7
-4 -5 -7 -7 -7 -7 -7 -6 -7 -7 -8 -8 -8 -8 -9 -9 -9 -9 -9 -8 -8 -8 -9 -8 -9 -9 -8 -9 -9 -8 -8 -8 -8 -7 -7 -7 -7 -7 -7 -7 -7 -7 -7 -7
Height
1469 1469 1464 1461 1458 1457 1470 1467 1479 1472 1470 1466 1459 1455 1451 1449 1447 1447 1445 1445 1446 1449 1453 1459 1465 1468 1471 1475 1479 1481 1486 1489 1492 1495 1498 1500 1501 1503 1504 1506 1507 1508 1510 1512
1468 1465 1464 1463 1463 1463 1466 1466 1467 1468 1469 1466 1461 1456 1455 1454 1451 1452 1451 1450 1451 1450 1454 1458 1462 1466 1471 1475 1480 1482 1484 1487 1489 1493 1495 1495 1498 1501 1503 1505 1506 1508 1509 1511
1481 1468 1466 1473 1470 1467 1468 1469 1469 1473 1472 1467 1466 1463 1461 1458 1454 1455 1456 1455 1456 1458 1461 1463 1467 1469 1471 1475 1478 1478 1481 1483 1487 1489 1491 1492 1494 1497 1500 1503 1504 1506 1508 1509
1475 1473 1479 1470 1467 1466 1470 1471 1470 1469 1467 1467 1468 1467 1466 1463 1459 1459 1457 1456 1458 1460 1462 1464 1467 1470 1472 1474 1476 1478 1480 1482 1484 1486 1488 1490 1494 1495 1498 1500 1502 1504 1505 1505
1481 1490 1473 1469 1472 1470 1469 1469 1468 1467 1465 1463 1464 1463 1463 1462 1462 1461 1461 1461 1461 1462 1465 1466 1468 1470 1471 1472 1474 1477 1479 1481 1483 1485 1487 1488 1492 1493 1495 1498 1499 1501 1502 1503
1479 1475 1478 1473 1470 1470 1469 1470 1469 1468 1465 1463 1463 1467 1464 1462 1462 1463 1464 1464 1465 1467 1467 1468 1471 1472 1471 1473 1474 1476 1478 1480 1482 1484 1485 1488 1488 1491 1494 1495 1497 1498 1499 1500
1477 1478 1478 1473 1469 1467 1473 1481 1471 1470 1467 1463 1463 1464 1463 1463 1463 1464 1464 1465 1467 1468 1470 1471 1472 1472 1472 1473 1475 1477 1479 1480 1481 1482 1484 1486 1487 1489 1491 1492 1493 1494 1495 1495
1480 1475 1479 1471 1470 1471 1475 1471 1470 1468 1466 1462 1461 1462 1462 1463 1463 1464 1466 1467 1467 1468 1468 1469 1470 1470 1471 1473 1474 1475 1477 1478 1479 1481 1482 1483 1485 1486 1487 1488 1490 1490 1491 1491
1480 1481 1473 1471 1471 1472 1471 1469 1468 1467 1466 1465 1464 1464 1465 1465 1465 1464 1467 1468 1468 1468 1469 1469 1469 1470 1470 1471 1472 1473 1475 1476 1478 1479 1480 1481 1482 1482 1484 1485 1486 1487 1488 1488
1476 1475 1474 1474 1474 1472 1471 1471 1470 1469 1468 1466 1466 1467 1468 1467 1467 1467 1468 1469 1469 1469 1469 1469 1469 1469 1470 1470 1470 1471 1473 1474 1475 1476 1476 1477 1478 1479 1481 1482 1483 1483 1482 1482
1475 1474 1474 1475 1474 1475 1474 1473 1474 1472 1471 1471 1470 1470 1469 1468 1469 1468 1468 1469 1469 1469 1469 1469 1469 1469 1469 1469 1469 1469 1470 1471 1471 1472 1473 1474 1474 1476 1477 1478 1478 1478 1477 1476
1474 1473 1473 1473 1473 1474 1475 1475 1473 1471 1470 1470 1469 1469 1469 1469 1469 1468 1468 1468 1468 1467 1467 1467 1467 1467 1467 1467 1467 1467 1468 1468 1469 1469 1470 1471 1471 1472 1473 1473 1473 1473 1472 1472
1471 1472 1472 1472 1472 1473 1472 1472 1471 1470 1469 1468 1467 1467 1466 1467 1469 1469 1468 1467 1467 1467 1466 1466 1465 1465 1465 1465 1464 1464 1465 1465 1466 1466 1466 1466 1466 1467 1468 1467 1467 1468 1468 1467
1471 1471 1471 1471 1471 1471 1471 1470 1470 1470 1470 1470 1469 1469 1468 1467 1466 1467 1467 1466 1465 1465 1464 1464 1463 1463 1462 1462 1461 1461 1461 1461 1461 1461 1461 1461 1461 1462 1462 1462 1463 1463 1463 1462
1469 1470 1470 1470 1469 1469 1470 1469 1468 1468 1468 1468 1468 1466 1466 1466 1465 1464 1463 1463 1462 1461 1461 1460 1460 1459 1459 1458 1458 1457 1457 1457 1457 1457 1457 1457 1457 1457 1457 1457 1457 1458 1458 1458
1467 1467 1467 1467 1467 1467 1467 1468 1467 1466 1465 1465 1464 1463 1463 1461 1460 1459 1459 1458 1457 1457 1456 1456 1455 1455 1454 1453 1452 1452 1452 1452 1452 1452 1452 1452 1452 1452 1452 1452 1452 1452 1452 1451
1464 1465 1465 1465 1465 1464 1464 1463 1463 1462 1461 1460 1459 1458 1456 1456 1455 1454 1453 1452 1452 1451 1451 1450 1449 1448 1447 1447 1447 1447 1447 1447 1447 1447 1447 1446 1446 1446 1446 1446 1446 1446 1445 1445
1462 1462 1462 1462 1461 1461 1460 1460 1458 1456 1455 1455 1453 1453 1453 1452 1450 1449 1448 1446 1445 1445 1445 1444 1444 1443 1443 1442 1442 1442 1441 1441 1441 1441 1440 1440 1440 1441 1440 1440 1440 1439 1439 1438
1460 1459 1459 1459 1458 1457 1455 1453 1453 1453 1452 1451 1450 1449 1446 1444 1443 1443 1443 1442 1442 1440 1441 1440 1439 1439 1438 1438 1437 1437 1436 1436 1435 1435 1435 1435 1434 1434 1434 1434 1434 1434 1433 1433
1457 1457 1456 1455 1454 1452 1450 1450 1449 1448 1448 1446 1443 1440 1439 1438 1436 1435 1436 1437 1437 1437 1436 1435 1435 1435 1434 1433 1432 1432 1431 1431 1431 1430 1430 1429 1428 1429 1429 1429 1429 1429 1428 1428
1455 1454 1453 1451 1449 1448 1446 1446 1445 1442 1441 1439 1437 1437 1435 1433 1433 1432 1431 1431 1432 1431 1431 1432 1431 1430 1429 1428 1428 1427 1427 1426 1426 1425 1425 1424 1424 1424 1424 1424 1425 1424 1424 1424
1452 1450 1448 1446 1444 1442 1442 1441 1438 1436 1434 1433 1432 1430 1428 1428 1427 1427 1426 1426 1427 1427 1427 1427 1427 1426 1425 1424 1424 1423 1422 1422 1421 1421 1421 1421 1421 1421 1421 1421 1421 1420 1420 1419
1448 1445 1443 1441 1439 1437 1436 1434 1432 1431 1430 1428 1428 1427 1426 1424 1423 1423 1422 1422 1422 1422 1422 1422 1422 1421 1421 1420 1419 1418 1418 1418 1418 1418 1418 1418 1417 1417 1417 1417 1417 1417 1416 1415
1444 1442 1439 1436 1433 1431 1430 1430 1429 1427 1425 1424 1423 1422 1422 1420 1419 1418 1417 1417 1418 1418 1418 1418 1418 1417 1416 1416 1415 1415 1415 1415 1415 1415 1415 1414 1414 1414 1414 1414 1414 1413 1413 1412
1441 1438 1434 1431 1429 1428 1427 1426 1425 1424 1422 1421 1419 1417 1416 1415 1415 1415 1414 1414 1414 1414 1414 1414 1414 1413 1413 1412 1412 1412 1412 1412 1412 1412 1411 1411 1411 1411 1411 1411 1410 1410 1409 1408
1438 1434 1431 1428 1427 1426 1425 1424 1422 1420 1417 1415 1414 1413 1413 1413 1413 1412 1412 1412 1412 1411 1410 1411 1410 1410 1410 1410 1410 1410 1410 1409 1409 1409 1409 1409 1409 1408 1408 1407 1407 1406 1405 1405
1436 1434 1431 1429 1427 1424 1422 1420 1418 1417 1416 1415 1413 1412 1412 1412 1411 1411 1410 1410 1409 1408 1407 1407 1407 1407 1407 1407 1407 1407 1407 1407 1406 1406 1406 1406 1406 1405 1405 1405 1404 1403 1402 1401
Wind_Speed
3 5 3 3 3 3 4 4 4 1 2 7 6 6 7 7 9 10 11 4 11 24 27 31 28 23 19 18 18 18 17 17 17 17 17 18 17 15 13 11 9 8 6 7
5 4 1 3 6 5 5 3 5 6 3 4 10 6 8 6 4 4 8 9 5 14 21 27 26 24 22 19 18 18 17 17 16 17 16 15 14 12 11 9 8 7 7 8
2 2 3 4 6 2 3 3 3 4 3 4 6 7 8 6 5 3 3 6 9 11 13 15 16 16 15 14 14 14 15 15 15 15 14 13 12 10 10 10 9 9 10 9
1 2 3 0 6 4 6 2 2 4 5 8 8 4 9 4 4 3 4 6 8 8 9 10 10 11 12 12 13 14 15 15 14 14 13 11 11 11 11 10 9 10 9 8
2 2 1 3 5 3 3 3 2 4 6 13 13 11 5 9 6 7 5 6 5 5 7 8 8 8 8 9 10 11 12 12 12 12 11 11 11 10 10 10 9 10 10 11
1 3 2 1 3 6 2 1 1 5 7 10 11 4 3 6 5 5 5 7 7 6 6 7 7 6 6 7 8 8 9 10 11 11 11 11 10 10 11 11 11 12 12 13
1 2 1 3 8 3 3 3 7 5 10 13 3 4 1 3 3 3 3 4 4 5 5 6 6 6 6 6 5 7 9 10 10 11 11 12 12 12 12 12 12 13 14 14
2 2 1 6 2 1 2 6 7 9 10 9 10 9 8 5 4 1 1 1 2 2 3 4 4 6 6 5 7 8 9 10 11 11 12 12 13 13 13 14 15 16 16 17
4 3 2 4 3 3 2 2 6 6 6 6 7 7 6 6 5 5 2 1 1 1 2 4 5 7 8 9 10 10 11 12 12 13 14 14 15 15 15 16 16 16 16 16
2 2 1 2 5 5 5 3 6 4 3 4 5 5 5 5 5 5 4 3 3 3 3 3 4 4 5 6 8 10 12 13 14 14 14 15 15 14 14 15 14 14 15 15
1 1 2 2 1 3 4 4 5 4 1 1 2 3 4 5 4 3 3 4 4 4 4 4 5 5 6 7 7 8 9 12 13 14 14 14 13 13 14 15 15 16 16 17
2 3 1 2 3 4 5 7 6 6 6 4 5 8 9 7 6 6 7 6 6 6 6 5 6 6 7 8 9 10 10 11 11 12 13 13 14 15 16 16 16 18 18 18
3 2 6 7 4 3 4 5 5 7 6 5 5 6 7 8 9 10 10 9 8 7 7 7 7 8 9 10 10 11 12 12 13 14 14 14 15 16 17 16 18 18 18 17
1 3 0 1 3 6 7 7 7 8 8 9 9 8 8 10 12 12 12 11 11 11 11 11 12 12 12 12 13 13 13 13 14 13 14 14 14 14 15 16 16 16 16 18
6 5 6 8 7 7 8 8 8 9 10 11 11 12 13 14 15 15 15 16 16 17 17 17 17 17 17 16 16 16 16 16 16 15 14 13 13 14 16 17 18 20 20 19
6 7 6 4 6 7 8 9 11 11 11 12 14 15 16 17 17 18 18 18 19 20 19 19 20 20 19 20 19 18 17 17 17 17 17 16 16 17 18 18 19 19 20 20
5 3 6 7 9 11 13 15 16 18 18 20 19 20 19 19 19 20 21 21 21 21 21 21 21 21 19 18 18 18 18 18 19 19 19 18 17 19 18 19 20 21 20 20
4 5 6 9 12 14 17 17 18 19 19 20 20 21 20 21 22 22 21 20 19 20 19 18 17 17 16 16 17 17 18 18 17 18 19 20 19 20 20 21 22 22 22 20
4 6 8 10 12 14 16 18 18 19 20 20 21 21 22 22 21 19 16 15 17 18 17 17 17 17 15 16 17 15 15 16 17 18 18 18 19 19 19 19 19 20 19 18
8 10 13 15 16 17 18 15 17 19 19 20 20 20 20 18 16 13 12 16 17 17 17 16 14 14 14 14 14 13 14 14 14 15 15 15 15 16 16 16 17 17 17 17
12 14 17 19 19 19 17 15 18 20 19 20 19 16 16 13 13 13 14 14 14 15 15 14 14 13 13 14 13 13 13 12 12 12 11 12 12 13 14 14 15 15 16 16
15 18 19 19 19 19 16 16 18 18 19 19 18 18 17 17 16 19 19 15 15 13 14 14 14 14 14 15 14 14 13 13 13 13 13 13 13 12 13 13 13 14 15 15
17 20 21 21 19 18 18 17 18 19 19 18 17 17 17 17 17 18 14 12 13 12 13 13 15 15 15 15 14 14 14 13 13 13 13 12 12 12 11 11 11 11 11 10
18 20 22 22 19 18 18 17 18 18 19 17 16 16 19 20 19 17 13 12 11 11 12 14 14 15 17 14 14 14 13 12 11 10 10 9 9 9 9 9 10 10 11 12
18 20 20 19 18 17 16 14 15 16 15 14 15 16 16 15 15 13 10 12 12 12 11 13 14 14 14 13 12 12 10 10 10 9 9 9 9 10 10 11 11 11 11 12
17 17 17 16 14 12 12 14 15 14 13 12 11 11 11 11 10 9 8 11 11 12 11 12 13 13 12 11 10 10 9 9 9 9 9 10 10 10 11 11 11 11 11 11
13 14 14 15 14 14 14 13 12 9 9 7 8 8 8 9 9 8 9 9 11 12 12 11 10 10 9 8 9 10 9 9 9 9 9 9 9 9 9 9 9 10 10 11
Wind_Direction
263 248 280 352 359 33 88 102 98 343 18 340 332 333 354 8 38 41 55 57 205 207 208 202 200 204 207 208 212 218 220 219 219 225 233 243 251 252 248 247 249 252 253 253
11 79 136 45 24 73 64 59 68 61 54 6 328 36 27 21 36 51 65 79 137 199 205 200 202 206 213 213 213 216 222 227 232 233 234 233 229 225 226 226 231 236 239 244
351 347 78 40 345 353 72 65 84 61 278 326 343 29 2 4 49 70 106 113 120 133 157 176 185 193 200 213 223 229 232 234 234 229 224 217 214 214 220 221 222 228 231 236
321 26 57 189 353 132 123 72 346 300 296 307 320 7 56 69 86 97 89 109 126 145 158 167 183 198 208 220 231 234 232 227 221 215 211 211 215 215 219 222 223 228 232 240
114 75 322 18 358 358 32 26 268 301 309 315 333 317 20 47 96 107 108 116 122 131 146 159 175 187 194 199 206 212 214 212 213 215 216 217 220 220 224 229 233 240 248 255
5 81 94 354 307 313 288 315 216 301 304 306 341 355 285 38 67 92 119 133 138 147 152 155 168 176 178 186 195 200 205 209 212 216 216 219 221 225 232 238 244 251 256 259
360 109 273 289 313 323 134 245 323 319 315 295 263 226 288 130 93 88 90 116 149 159 163 173 183 187 181 189 190 200 206 212 214 216 220 224 229 235 241 248 255 258 260 269
184 113 181 3 42 88 316 336 341 352 347 310 252 250 190 159 144 145 292 201 186 204 218 220 220 218 218 213 219 222 222 225 228 231 236 241 244 247 254 257 259 263 270 274
150 211 309 13 101 68 48 333 1 351 19 61 112 138 157 161 160 155 171 211 186 211 245 259 258 250 247 243 244 246 245 242 241 240 241 244 249 250 251 255 261 267 272 276
83 47 111 54 18 12 19 18 336 22 95 103 118 141 152 153 153 162 177 199 217 231 255 269 270 261 253 250 251 248 245 243 241 242 247 251 253 253 254 256 259 268 277 285
52 93 139 111 69 320 318 321 314 335 220 138 193 175 192 190 196 208 219 226 227 228 236 241 247 249 246 243 247 248 244 243 246 248 246 242 240 245 251 260 269 274 283 291
223 158 171 264 322 340 306 306 296 283 276 282 234 230 242 235 238 233 245 245 246 239 242 249 255 256 254 251 250 247 247 244 242 241 241 243 248 252 256 259 267 275 282 282
152 271 289 291 278 343 310 286 290 294 291 284 262 252 237 244 251 253 253 253 256 257 258 260 264 267 267 265 260 254 249 248 248 248 249 252 256 261 263 265 268 274 281 281
234 343 202 173 269 300 303 300 289 283 281 279 274 266 260 262 258 256 257 258 257 259 263 264 264 264 264 265 266 264 261 256 252 251 255 256 260 263 265 271 272 272 279 279
250 284 277 279 289 284 287 296 297 298 290 282 277 271 269 269 270 268 267 269 271 272 271 269 269 268 267 265 263 261 260 259 258 254 257 259 267 275 276 275 274 274 272 271
260 287 278 242 249 273 277 284 286 291 295 291 282 277 277 275 274 275 276 275 275 275 272 270 270 269 268 266 264 263 261 261 259 258 258 261 268 274 275 276 276 276 279 282
266 265 269 265 274 281 282 285 288 282 283 286 284 281 279 278 278 278 276 273 271 271 272 272 274 274 269 263 263 261 261 259 257 257 257 257 261 263 266 269 272 276 286 287
272 278 281 285 294 297 298 295 288 284 282 281 281 282 283 281 278 274 271 270 269 270 274 273 272 270 273 273 271 271 268 265 263 262 263 263 264 265 268 270 272 275 280 281
292 305 308 305 299 292 291 294 295 295 291 289 287 286 283 279 277 274 269 267 269 271 274 275 275 274 268 265 266 268 266 266 269 267 265 263 263 264 266 269 273 276 278 277
305 305 305 304 303 302 290 290 294 293 291 291 289 282 281 276 268 267 276 274 271 270 272 277 270 269 268 266 268 269 269 272 275 275 269 268 268 269 268 269 272 273 275 276
306 307 307 305 302 299 297 296 293 290 286 283 282 283 281 278 274 267 265 272 276 269 268 266 270 272 270 269 270 273 273 272 274 276 277 277 275 274 272 271 271 272 272 272
307 311 313 310 306 304 305 297 291 289 284 280 276 274 272 265 261 268 256 257 267 265 262 266 272 275 275 273 276 274 272 272 273 275 277 278 279 278 277 278 279 279 282 284
317 318 316 313 310 306 298 294 292 290 289 289 280 278 278 273 263 275 255 259 263 260 263 271 278 278 277 281 283 281 279 277 276 276 277 278 278 278 278 278 281 284 287 288
318 322 320 320 311 303 300 301 297 293 290 290 286 280 279 279 274 262 248 258 258 259 272 280 279 281 281 283 282 281 278 276 276 276 275 275 276 279 282 283 286 289 292 294
327 324 317 314 313 306 300 300 300 306 303 296 290 287 282 276 265 256 254 257 260 268 279 284 283 284 283 282 281 280 279 278 278 278 279 281 282 285 287 288 290 292 294 297
333 337 338 334 327 324 329 320 309 307 302 300 297 294 286 274 262 262 275 281 278 280 287 285 282 281 279 278 277 275 274 273 272 273 277 282 286 288 289 291 293 296 299 301
349 344 343 333 330 318 315 307 305 309 309 312 308 302 286 273 268 268 272 285 294 293 290 288 287 283 278 276 277 274 274 275 276 281 285 286 287 286 286 288 291 294 299 304